SNEZKA Weather Reports


time (UTC)temp
F
wind
direction
speed
knots
gust
knots
rain 1hr
in
rain 24hr
in
rain mn
in
humidity
%
barometer
mb
20260904192306 55 200 28.7 55.6 0.00 0.00 0.00 93
20260904182029 57 200 26.9 52.1 0.00 0.00 0.00 87
20260904172031 55 210 26.9 51.3 0.00 0.00 0.00 99
20260904162306 54 210 20.9 48.7 0.00 0.00 0.00 99
20260904152039 54 200 31.3 58.2 0.00 0.00 0.00 99
20260904142029 54 210 28.7 55.6 0.00 0.00 0.00 99
20260904132236 54 210 34.8 60.0 0.00 0.00 0.00 99
20260904122004 52 220 48.7 72.1 0.00 0.00 0.00 99
20260904112011 50 220 31.3 60.0 0.00 0.00 0.00 99
20260904102419 50 210 22.6 46.9 0.00 0.00 0.00 99
20260904092032 50 210 19.1 39.1 0.00 0.00 0.00 99
20260904082031 50 230 26.9 40.8 0.00 0.00 0.00 99
20260904072220 48 250 39.1 52.1 0.00 0.00 0.00 99
20260904062003 48 250 37.4 46.9 0.00 0.00 0.00 99
20260904052011 46 260 45.2 0.0 0.00 0.00 0.00 99
20260904042404 46 260 39.1 0.0 0.00 0.00 0.00 99
20260904031945 46 270 33.0 42.6 0.00 0.00 0.00 99
20260904022010 46 270 42.6 53.9 0.00 0.00 0.00 99
20260904012306 46 260 48.7 0.0 0.00 0.00 0.00 99
20260904002010 46 270 42.6 0.0 0.00 0.00 0.00 99
20260903232011 46 250 39.1 51.3 0.00 0.00 0.00 99
20260903222404 46 240 45.2 58.2 0.00 0.00 0.00 99
20260903212011 46 230 33.0 51.3 0.00 0.00 0.00 99
20260903202011 48 230 37.4 46.9 0.00 0.00 0.00 99